Airfield :
LOGIN :

Register | Disclaimer

   EN    FR    IT 

 










Legend :    VFR   Marginal VFR   IFR   Intensive IFR   Very Intensive IFR
Visi :
Ceiling :
>= 8 km
>= 3000ft
5 to 8 km
1000 to 3000 ft
1500m to 5 km
500 to 1000 ft
800 to 1500m
200 to 500 ft
< 800m
< 200 ft
Symbols :   Thunderstorms  Fog  Heavy snow  Heavy precipitations  Wind > 20 kt
SIGMETs :     Misc.  Thunderstorms  Icing  Turbulence  Mountain Waves  Volcanic Ashes






- Airport Elevation : 1276 ft
- IATA code : STR


EDDS - Stuttgart

CURRENT METAR :
  • 100350Z 26005KT CAVOK 12/08 Q1006

EXPIRED METARs :
  • 100320Z 03001KT CAVOK 12/08 Q1006
  • 100250Z VRB02KT CAVOK 13/08 Q1006
  • 100220Z VRB02KT CAVOK 12/08 Q1006
  • 100150Z VRB01KT CAVOK 13/08 Q1006
  • 100120Z VRB01KT CAVOK 13/08 Q1006

TAF TAF EDDS
Valid from the 10 at 00:00 until the 11 at 00:00 UTC


092300Z 1000/1024 VRB02KT CAVOK
BECMG 1007/1009 24005KT
BECMG 1009/1011 34008KT
PROB30
TEMPO 1016/1020 TSRA BKN015CB



MET'MAP, your aeronautical weather chart ! - Copyright ORBIFLY December 2007 - Disclaimer

ORBIFLY MET'MAP TEAM :

Programming & Development : Alexandra Zaïnal
Concept & original design : Baudouin d'Aumeries
Assistance for programming : Marc-Olivier Méhu
Technical & hardware support : Manuel Goepfert

Contact : metmap@orbifly.com




SOURCES & CREDITS :

   NOAA